FW6002 Weather Reports


time (UTC)temp
C
wind
direction
speed
KPH
gust
KPH
rain 1hr
cm
rain 24hr
cm
rain mn
cm
humidity
%
barometer
mb
20260503204555 28 58 1.6 6.4 0.00 0.00 0.00 37 1017.2
20260503204054 28 360 1.6 6.4 0.00 0.00 0.00 41 1017.3
20260503203555 28 65 1.6 6.4 0.00 0.00 0.00 33 1017.5
20260503203053 28 136 1.6 9.7 0.00 0.00 0.00 35 1017.8
20260503202555 28 206 1.6 9.7 0.00 0.00 0.00 36 1017.7
20260503202054 28 65 1.6 8.0 0.00 0.00 0.00 38 1017.7
20260503201559 28 78 1.6 8.0 0.00 0.00 0.00 35 1017.8
20260503201055 28 78 1.6 8.0 0.00 0.00 0.00 38 1018.0
20260503200555 28 0 3.2 8.0 0.00 0.00 0.00 35 1017.9
20260503200057 28 256 1.6 11.3 0.00 0.00 0.00 36 1018.1
20260503195554 28 190 1.6 11.3 0.00 0.00 0.00 41 1018.1
20260503195056 28 142 1.6 9.7 0.00 0.00 0.00 34 1018.3
20260503194624 28 0 3.2 12.9 0.00 0.00 0.00 34 1018.3
20260503194055 28 118 1.6 12.9 0.00 0.00 0.00 37 1018.4
20260503193557 28 140 1.6 9.7 0.00 0.00 0.00 33 1018.4
20260503193056 28 0 0.0 9.7 0.00 0.00 0.00 39 1018.5
20260503192554 28 65 4.8 9.7 0.00 0.00 0.00 34 1018.5
20260503192057 28 132 0.0 12.9 0.00 0.00 0.00 40 1018.6
20260503191612 27 43 1.6 12.9 0.00 0.00 0.00 33 1018.7
20260503191054 28 0 1.6 11.3 0.00 0.00 0.00 33 1018.9
20260503190554 27 200 0.0 4.8 0.00 0.00 0.00 37 1019.0
20260503190100 28 45 1.6 4.8 0.00 0.00 0.00 37 1019.1
20260503185555 28 0 0.0 4.8 0.00 0.00 0.00 38 1019.3
20260503185059 28 17 0.0 6.4 0.00 0.00 0.00 40 1019.2
20260503184559 28 142 0.0 8.0 0.00 0.00 0.00 38 1019.3
20260503184055 28 36 1.6 8.0 0.00 0.00 0.00 38 1019.4
20260503183555 27 294 1.6 9.7 0.00 0.00 0.00 36 1019.4
20260503183105 27 26 0.0 9.7 0.00 0.00 0.00 39 1019.6
20260503182554 27 0 3.2 9.7 0.00 0.00 0.00 39 1019.7
20260503182055 28 120 1.6 8.0 0.00 0.00 0.00 35 1019.9
20260503181609 27 39 1.6 9.7 0.00 0.00 0.00 39 1019.9
20260503181057 27 77 3.2 9.7 0.00 0.00 0.00 38 1019.8
20260503180554 28 69 0.0 9.7 0.00 0.00 0.00 43 1020.0
20260503180058 27 75 1.6 12.9 0.00 0.00 0.00 41 1020.0
20260503175554 27 166 3.2 12.9 0.00 0.00 0.00 38 1020.1
20260503175056 27 38 1.6 6.4 0.00 0.00 0.00 39 1020.2
20260503174621 27 0 0.0 8.0 0.00 0.00 0.00 46 1020.3
20260503174057 27 69 0.0 9.7 0.00 0.00 0.00 43 1020.3
20260503173555 27 127 1.6 9.7 0.00 0.00 0.00 38 1020.5
20260503173105 27 111 1.6 4.8 0.00 0.00 0.00 38 1020.4
20260503172554 27 148 0.0 4.8 0.00 0.00 0.00 45 1020.5
20260503172054 27 51 1.6 4.8 0.00 0.00 0.00 42 1020.9
20260503171554 27 53 0.0 6.4 0.00 0.00 0.00 43 1020.9
20260503171056 27 154 1.6 6.4 0.00 0.00 0.00 42 1020.9
20260503170556 27 196 1.6 6.4 0.00 0.00 0.00 44 1021.0
20260503170105 27 0 0.0 6.4 0.00 0.00 0.00 45 1021.1
20260503150556 22 0 0.0 4.8 0.00 0.00 0.00 56 1021.9
20260503131055 13 0 0.0 0.0 0.00 0.00 0.00 85 1021.4
20260503130555 13 0 0.0 0.0 0.00 0.00 0.00 87 1021.4
20260503130104 12 0 0.0 0.0 0.00 0.00 0.00 88 1021.5
20260503120128 8 0 0.0 0.0 0.00 0.00 0.00 86 1020.6
20260503110554 9 0 0.0 0.0 0.00 0.00 0.00 85 1020.3
20260503081600 11 0 0.0 0.0 0.00 0.00 0.00 84 1019.9
20260503081056 11 0 0.0 0.0 0.00 0.00 0.00 84 1019.9
20260503080556 11 0 0.0 0.0 0.00 0.00 0.00 84 1019.9
20260503072558 11 0 0.0 0.0 0.00 0.00 0.00 83 1020.3
20260503072056 11 0 0.0 0.0 0.00 0.00 0.00 83 1020.3
20260503071557 11 0 0.0 0.0 0.00 0.00 0.00 83 1020.4
20260503071056 11 0 0.0 0.0 0.00 0.00 0.00 83 1020.5
20260503070556 11 0 0.0 0.0 0.00 0.00 0.00 82 1020.4
20260503055056 13 0 0.0 0.0 0.00 0.00 0.00 79 1020.3
20260503054559 13 0 0.0 0.0 0.00 0.00 0.00 80 1020.5
20260503054056 13 0 0.0 0.0 0.00 0.00 0.00 80 1020.3
20260503053555 13 0 0.0 0.0 0.00 0.00 0.00 80 1020.3
20260503053053 13 0 0.0 0.0 0.00 0.00 0.00 80 1020.3
20260503052556 13 0 0.0 0.0 0.00 0.00 0.00 80 1020.3
20260503052055 13 0 0.0 0.0 0.00 0.00 0.00 80 1020.2
20260503051555 13 0 0.0 0.0 0.00 0.00 0.00 80 1020.2
20260503051055 13 0 0.0 0.0 0.00 0.00 0.00 79 1020.3
20260503050557 13 0 0.0 0.0 0.00 0.00 0.00 79 1020.2
20260503050058 13 0 0.0 0.0 0.00 0.00 0.00 78 1020.1
20260503045556 13 0 0.0 0.0 0.00 0.00 0.00 77 1020.1
20260503045056 13 0 0.0 0.0 0.00 0.00 0.00 76 1020.0
20260503044613 13 0 0.0 0.0 0.00 0.00 0.00 76 1020.1
20260503044121 13 0 0.0 0.0 0.00 0.00 0.00 76 1020.0
20260503043556 13 0 0.0 0.0 0.00 0.00 0.00 76 1020.0
20260503043058 14 0 0.0 0.0 0.00 0.00 0.00 76 1020.0
20260503042552 14 0 0.0 0.0 0.00 0.00 0.00 75 1020.0
20260503042055 14 0 0.0 1.6 0.00 0.00 0.00 75 1020.2
20260503041611 14 0 0.0 1.6 0.00 0.00 0.00 75 1020.2
20260503041055 14 0 0.0 0.0 0.00 0.00 0.00 75 1020.2
20260503040555 14 0 0.0 0.0 0.00 0.00 0.00 76 1020.2
20260503040057 13 0 0.0 0.0 0.00 0.00 0.00 77 1020.2
20260503035600 14 0 0.0 0.0 0.00 0.00 0.00 76 1020.3
20260503035057 14 0 0.0 0.0 0.00 0.00 0.00 74 1020.3
20260503034555 14 0 0.0 0.0 0.00 0.00 0.00 73 1020.3
20260503034056 14 0 0.0 0.0 0.00 0.00 0.00 73 1020.1
20260503033555 14 0 0.0 0.0 0.00 0.00 0.00 73 1020.0
20260503033114 14 0 0.0 0.0 0.00 0.00 0.00 73 1020.1
20260503032555 14 0 0.0 0.0 0.00 0.00 0.00 73 1020.1
20260503032055 14 0 0.0 0.0 0.00 0.00 0.00 74 1019.9
20260503031553 13 0 0.0 0.0 0.00 0.00 0.00 76 1019.9
20260503031055 13 0 0.0 0.0 0.00 0.00 0.00 75 1019.9
20260503030554 13 0 0.0 0.0 0.00 0.00 0.00 76 1019.9
20260503030100 13 0 0.0 0.0 0.00 0.00 0.00 75 1019.8
20260503025555 14 0 0.0 0.0 0.00 0.00 0.00 74 1019.7
20260503025055 14 0 0.0 0.0 0.00 0.00 0.00 73 1019.5
20260503024602 14 0 0.0 0.0 0.00 0.00 0.00 75 1019.6
20260503024055 14 0 0.0 0.0 0.00 0.00 0.00 74 1019.6
20260503023556 14 0 0.0 0.0 0.00 0.00 0.00 74 1019.5
20260503023056 15 0 0.0 0.0 0.00 0.00 0.00 74 1019.5
20260503022555 15 0 0.0 0.0 0.00 0.00 0.00 75 1019.4
20260503022055 15 0 0.0 0.0 0.00 0.00 0.00 75 1019.5
20260503021609 15 0 0.0 0.0 0.00 0.00 0.00 75 1019.4
20260503021055 15 0 0.0 0.0 0.00 0.00 0.00 73 1019.2
20260503020555 15 0 0.0 0.0 0.00 0.00 0.00 72 1019.3
20260503015558 16 0 0.0 0.0 0.00 0.00 0.00 70 1019.3
20260503015057 16 0 0.0 0.0 0.00 0.00 0.00 70 1019.3
20260503014554 16 0 0.0 0.0 0.00 0.00 0.00 68 1019.3
20260503014055 16 0 0.0 0.0 0.00 0.00 0.00 68 1019.2
20260503013555 17 0 0.0 0.0 0.00 0.00 0.00 67 1019.1
20260503013058 17 0 0.0 0.0 0.00 0.00 0.00 66 1019.1
20260503012558 17 0 0.0 0.0 0.00 0.00 0.00 67 1018.9
20260503012055 17 0 0.0 0.0 0.00 0.00 0.00 66 1019.0
20260503011607 17 0 0.0 0.0 0.00 0.00 0.00 65 1018.8
20260503011055 17 0 0.0 0.0 0.00 0.00 0.00 66 1018.8
20260503010555 18 0 0.0 0.0 0.00 0.00 0.00 64 1018.8
20260503005558 18 0 0.0 0.0 0.00 0.00 0.00 62 1018.7
20260503005057 18 0 0.0 0.0 0.00 0.00 0.00 61 1018.8
20260503004601 18 0 0.0 0.0 0.00 0.00 0.00 60 1019.0
20260503004055 19 0 0.0 0.0 0.00 0.00 0.00 59 1018.9
20260503003555 19 0 0.0 0.0 0.00 0.00 0.00 59 1018.9
20260503003106 19 0 0.0 0.0 0.00 0.00 0.00 58 1019.0
20260503002555 19 0 0.0 0.0 0.00 0.00 0.00 57 1019.0
20260503002057 20 0 0.0 0.0 0.00 0.00 0.00 56 1018.8
20260503001602 20 0 0.0 0.0 0.00 0.00 0.00 55 1018.8
20260503001052 21 0 0.0 0.0 0.00 0.00 0.00 51 1018.8
20260503000554 21 0 0.0 0.0 0.00 0.00 0.00 52 1018.8
20260503000055 21 0 0.0 0.0 0.00 0.00 0.00 48 1018.7
20260502235551 21 0 0.0 0.0 0.00 0.00 0.00 50 1018.7
20260502235055 21 0 0.0 0.0 0.00 0.00 0.00 49 1018.8
20260502234556 21 0 0.0 1.6 0.00 0.00 0.00 47 1018.8
20260502234055 22 0 0.0 1.6 0.00 0.00 0.00 48 1019.0
20260502233555 22 0 0.0 1.6 0.00 0.00 0.00 44 1019.0
20260502233057 22 0 0.0 3.2 0.00 0.00 0.00 45 1018.9
20260502232555 22 0 0.0 3.2 0.00 0.00 0.00 45 1019.1
20260502232055 22 0 0.0 3.2 0.00 0.00 0.00 44 1018.8
20260502231558 22 0 0.0 3.2 0.00 0.00 0.00 43 1018.8
20260502231059 22 0 0.0 1.6 0.00 0.00 0.00 44 1018.9
20260502230555 22 0 0.0 1.6 0.00 0.00 0.00 45 1018.8
20260502230101 23 0 0.0 1.6 0.00 0.00 0.00 46 1018.9
20260502225556 23 0 0.0 1.6 0.00 0.00 0.00 45 1019.1
20260502225055 22 0 0.0 1.6 0.00 0.00 0.00 44 1018.7
20260502224606 22 0 0.0 1.6 0.00 0.00 0.00 42 1019.0
20260502224055 23 0 0.0 1.6 0.00 0.00 0.00 43 1019.0
20260502223555 23 0 0.0 1.6 0.00 0.00 0.00 40 1018.9
20260502223059 23 0 0.0 3.2 0.00 0.00 0.00 43 1019.0
20260502222555 23 0 0.0 4.8 0.00 0.00 0.00 44 1019.1
20260502222054 23 11 0.0 4.8 0.00 0.00 0.00 45 1019.1
20260502221552 23 0 0.0 4.8 0.00 0.00 0.00 43 1019.2
20260502221055 23 0 0.0 3.2 0.00 0.00 0.00 42 1019.2
20260502220558 23 50 0.0 3.2 0.00 0.00 0.00 42 1019.2
20260502220140 23 35 0.0 3.2 0.00 0.00 0.00 44 1019.3
20260502215555 23 36 0.0 3.2 0.00 0.00 0.00 43 1019.3
20260502215054 24 0 0.0 3.2 0.00 0.00 0.00 41 1019.3
20260502214557 24 0 0.0 3.2 0.00 0.00 0.00 48 1019.5
20260502214055 24 304 0.0 6.4 0.00 0.00 0.00 42 1019.5
20260502213554 25 0 0.0 6.4 0.00 0.00 0.00 44 1019.5
20260502213058 25 0 0.0 6.4 0.00 0.00 0.00 44 1019.6
20260502212555 24 0 0.0 6.4 0.00 0.00 0.00 41 1019.7
20260502212055 25 0 0.0 3.2 0.00 0.00 0.00 44 1019.7
20260502211556 24 0 0.0 3.2 0.00 0.00 0.00 41 1019.7
20260502211055 25 0 0.0 3.2 0.00 0.00 0.00 40 1019.8
20260502210554 25 0 0.0 3.2 0.00 0.00 0.00 43 1019.7
20260502210106 25 0 0.0 3.2 0.00 0.00 0.00 46 1019.8
20260502205554 24 0 0.0 3.2 0.00 0.00 0.00 44 1020.0
20260502205054 25 0 0.0 4.8 0.00 0.00 0.00 45 1020.2